User: anonymous   Login
Location: Carrières
(48.9495°N, 2.0407°E)
Time: 05:49:35
(UTC+00:00)
Language:

Cosmos 2278 Rocket - Orbit

View from above orbital plane
View from above orbital plane
View from above satellite
View from above satellite

Ground track
Ground track

The orbit data is extracted from the following two-line orbital elements,

1 23088U 94023B   23159.03908719 -.00000173  00000-0 -64807-4 0  9998
2 23088  71.0004  22.4441 0003058 344.8287  15.2743 14.14765173503845
Epoch (UTC): 08 June 2023 00:56:17
Eccentricity: 0.0003058
inclination: 71.0004°
perigee height: 841 km
apogee height: 845 km
right ascension of ascending node: 22.4441°
argument of perigee: 344.8287°
revolutions per day: 14.14765173
mean anomaly at epoch: 15.2743°
orbit number at epoch: 50384

The dashed part of the orbit path shows where the satellite is in the earth's shadow,  

DLR